Location: Airlie Beach - Cannonvale QLD, Australia
(20.2768°S, 148.7558°E)
Time: 06:41:58
(UTC+10:00)

BlueWalker 3 - Pass Details

Date: 02 April 2023
Orbit: 494 x 513 km, 53.2° (Epoch: 31 May)

Event Time Altitude Azimuth Distance (km) Brightness Sun altitude
Exits shadow 03:54:36 16° 93° (E) 1,377 4.9 -33.0°
Drops below altitude 10° 03:55:46 10° 108° (ESE) 1,699 5.4 -32.8°
Sets 03:58:20 0° 124° (ESE) 2,591 6.4 -32.2°
